LiveATC.Net - Listen to live air traffic control over the Internet!


ICAO: TBPB  IATA: BGI   Airport: Grantley Adams International Airport
City: Bridgetown
Country: Barbados   Continent: North America
TBPB METAR Weather: TBPB 230100Z 09014KT 9999 -SHRA BKN020 25/22 Q1018 NOSIG
TBPB Flight Activity (FlightAware)

TBPB Gnd/Twr/Radar/Center
Feed Status: UP   Listeners: 0
Listen in your browser - HTML5 player (in browser, HTML5)
Click here to listen with your own player (launches your MP3 player)
TBPB Gnd/Twr/Radar/Center Audio Archives
FacilityFrequency
Adams Approach/Departure128.850
Adams Approach/Departure129.350
Adams Ground121.900
Adams Tower118.700
Piarco Center123.700

NOTICE

Unauthorized use prohibited. See LiveATC.net Terms of Service


Find LiveATC Audio Streams


Airport/ARTCC Code

Frequency Search
(e.g., 124.400, 128.75)
Site-wide search
 


Browse LiveATC Feeds
Top 50 LiveATC Feeds
LiveATC Feed Map
Bad Weather Areas

LiveATC FAQ
Offer LiveATC feed
Contact LiveATC.net
Press Inquiries

LiveATC on iPhone
LiveATC on Android

Windows Phone
Windows 8/10

LiveATC Mobile
(Mobile browser)

ATC Audio Archives
Interesting Recordings

LiveATC Forums


Home Page
About LiveATC.net
Make a Donation
Terms of Use
Privacy Policy

Canadian Air Freqs

AIRMETs/SIGMETs

FAA Airport Status
Nat'l Airspace Status
Arrival Demand Charts


Server Software By:
Icecast.org
Liquidsoap